Hattiesburg, MS

1:13 AM CDT on April 26, 2017 (GMT -0500)
Chain Municipal

Weather History for KHBG - December, 2014

Change the Weather History Date:

Friday, December 12, 2014

  Actual Average Record
Temperature  
Mean Temperature 52 °F 51 °F  
Max Temperature 62 °F 62 °F 81 °F (1949)
Min Temperature 42 °F 40 °F 16 °F (1962)
Degree Days  
Heating Degree Days 13 15  
Month to date heating degree days 102 162  
Since 1 July heating degree days 518 490  
Cooling Degree Days 0 1  
Month to date cooling degree days 5 12  
Year to date cooling degree days 2469 2402  
Growing Degree Days 2 (Base 50)    
Moisture  
Dew Point 40 °F    
Average Humidity 69    
Maximum Humidity 92    
Minimum Humidity 46    
Precipitation  
Precipitation T in 0.17 in 3.18 in (2009)
Month to date precipitation 0.01 1.94  
Year to date precipitation 46.12 56.20  
Sea Level Pressure  
Sea Level Pressure 30.34 in    
Wind  
Wind Speed 2 mph (North)    
Max Wind Speed 7 mph    
Max Gust Speed 13 mph    
Visibility 10 miles    
Events      
T = Trace of Precipitation, MM = Missing Value Source: NWS Daily Summary

Daily Weather History Graph

Daily Weather History Graph

Search for Another Location

Airport or City:

Trip Planner

Search our weather history database for the weather conditions in past years. The results will help you decide how hot, cold, wet, or windy it might be!

Date:

Astronomy

Dec. 12, 2014 Rise Set
Actual Time 6:46 AM CST 4:55 PM CST
Civil Twilight 6:19 AM CST 5:21 PM CST
Nautical Twilight 5:49 AM CST 5:52 PM CST
Astronomical Twilight 5:19 AM CST 6:21 PM CST
Moon 10:43 PM CST (12/12) 10:56 AM CST (12/12)
Length of Visible Light 11h 02m
Length of Day
10h 08m
Waning Gibbous, 67% of the Moon is Illuminated
Dec 12
Waning Gibbous
Dec 14
Last Quarter
Dec 21
New
Dec 28
First Quarter
Jan 4
Full

Hourly Weather History & Observations

Time (CST) Temp. Dew Point Humidity Pressure Visibility Wind Dir Wind Speed Gust Speed Precip Events Conditions
12:53 AM 48.0 °F 42.1 °F 80% 30.31 in 10.0 mi Calm Calm - N/A   Overcast
1:53 AM 46.9 °F 39.9 °F 77% 30.31 in 10.0 mi Calm Calm - N/A   Overcast
2:53 AM 46.9 °F 39.9 °F 77% 30.31 in 10.0 mi Calm Calm - N/A   Overcast
3:53 AM 46.9 °F 39.0 °F 74% 30.33 in 10.0 mi North 4.6 mph - N/A   Overcast
4:53 AM 48.0 °F 37.9 °F 68% 30.35 in 10.0 mi North 3.5 mph - N/A   Overcast
5:53 AM 46.9 °F 39.9 °F 77% 30.36 in 10.0 mi NNE 3.5 mph - 0.00 in   Overcast
6:53 AM 46.9 °F 37.9 °F 71% 30.39 in 10.0 mi NNE 3.5 mph - N/A   Overcast
7:53 AM 48.0 °F 36.0 °F 63% 30.39 in 10.0 mi NE 3.5 mph - N/A   Overcast
8:53 AM 48.9 °F 35.1 °F 59% 30.40 in 10.0 mi ENE 5.8 mph - N/A   Overcast
9:53 AM 51.1 °F 35.1 °F 54% 30.41 in 10.0 mi Variable 4.6 mph - N/A   Overcast
10:53 AM 53.1 °F 35.1 °F 50% 30.40 in 10.0 mi ENE 4.6 mph - N/A   Overcast
11:53 AM 55.9 °F 37.0 °F 49% 30.36 in 10.0 mi North 3.5 mph - N/A   Overcast
12:53 PM 57.0 °F 37.9 °F 49% 30.34 in 10.0 mi West 4.6 mph - N/A   Overcast
1:53 PM 59.0 °F 39.0 °F 48% 30.31 in 10.0 mi Calm Calm - N/A   Clear
2:53 PM 60.1 °F 39.9 °F 47% 30.31 in 10.0 mi WNW 3.5 mph - N/A   Mostly Cloudy
3:53 PM 60.1 °F 42.1 °F 51% 30.30 in 10.0 mi West 5.8 mph - N/A   Overcast
4:53 PM 57.0 °F 42.1 °F 57% 30.31 in 10.0 mi Calm Calm - N/A   Clear
5:53 PM 52.0 °F 43.0 °F 71% 30.31 in 10.0 mi Calm Calm - N/A   Scattered Clouds
6:16 PM 50.0 °F 43.0 °F 77% 30.32 in 10.0 mi Calm Calm - N/A   Mostly Cloudy
6:35 PM 48.9 °F 44.1 °F 83% 30.31 in 10.0 mi Calm Calm - N/A   Mostly Cloudy
6:53 PM 48.0 °F 43.0 °F 83% 30.32 in 10.0 mi Calm Calm - N/A   Partly Cloudy
7:53 PM 46.0 °F 43.0 °F 89% 30.32 in 10.0 mi Calm Calm - N/A   Clear
8:53 PM 46.0 °F 42.1 °F 86% 30.32 in 10.0 mi Calm Calm - N/A   Clear
9:53 PM 45.0 °F 42.1 °F 90% 30.33 in 10.0 mi Calm Calm - N/A   Clear
10:53 PM 44.1 °F 41.0 °F 89% 30.33 in 10.0 mi Calm Calm - N/A   Mostly Cloudy
11:53 PM 42.1 °F 41.0 °F 96% 30.32 in 10.0 mi Calm Calm - N/A   Clear